Location: Gleizolles
(44.4833°N, 6.7667°E)
Time: 23:40:53
(UTC+00:00)

S-56A Canister/Altair - Pass Details

Date: 29 June 2024
Orbit: 638 x 2488 km, 38.9° (Epoch: 24 July)

Event Time Altitude Azimuth Distance (km) Brightness Sun altitude
Rises 23:35:32 0° 279° (W) 4,636 11.6 -22.4°
Reaches altitude 10° 23:38:30 10° 271° (W) 3,892 11.1 -22.4°
Maximum altitude 23:48:07 39° 208° (SSW) 2,823 9.9 -22.3°
Enters shadow 23:54:04 28° 165° (SSE) 3,595 10.3 -22.2°
Drops below altitude 10° 00:00:41 10° 147° (SSE) 5,054 - -22.1°
Sets 00:05:13 0° 140° (SE) 6,137 - -22.0°
